Meteo pe oră la Aligarh

Astăzi, 19 Ianuarie, Marţi

Timp Temperatura Precipitaţii Vânt Presiune Umiditate
00:00 +13°C° 0 mm 1 m/s 743 mmHg 78%
01:00 +13°C° 0 mm 1 m/s 743 mmHg 80%
02:00 +12°C° 0 mm 1 m/s 743 mmHg 82%
03:00 +12°C° 0 mm 1 m/s 743 mmHg 83%
04:00 +12°C° 0 mm 1 m/s 742 mmHg 84%
05:00 +12°C° 0 mm 1 m/s 742 mmHg 88%
06:00 +12°C° 0 mm 1 m/s 743 mmHg 84%
07:00 +13°C° 0 mm 1 m/s 743 mmHg 80%
08:00 +14°C° 0 mm 2 m/s 744 mmHg 76%
09:00 +17°C° 0 mm 2 m/s 744 mmHg 66%
10:00 +19°C° 0 mm 2 m/s 744 mmHg 57%
11:00 +21°C° 0 mm 2 m/s 744 mmHg 49%
12:00 +23°C° 0 mm 2 m/s 743 mmHg 46%
13:00 +24°C° 0 mm 2 m/s 743 mmHg 43%
14:00 +25°C° 0 mm 2 m/s 742 mmHg 39%
15:00 +24°C° 0 mm 2 m/s 742 mmHg 45%
16:00 +23°C° 0 mm 2 m/s 742 mmHg 51%
17:00 +20°C° 0 mm 2 m/s 741 mmHg 56%
18:00 +19°C° 0 mm 2 m/s 742 mmHg 58%
19:00 +18°C° 0 mm 2 m/s 742 mmHg 61%
20:00 +17°C° 0 mm 2 m/s 743 mmHg 63%
21:00 +16°C° 0 mm 3 m/s 743 mmHg 65%
22:00 +14°C° 0 mm 3 m/s 743 mmHg 68%
23:00 +14°C° 0 mm 3 m/s 742 mmHg 71%

Mâine, 20 Ianuarie, Miercuri

Timp Temperatura Precipitaţii Vânt Presiune Umiditate
00:00 +13°C° 0 mm 3 m/s 742 mmHg 72%
01:00 +13°C° 0 mm 3 m/s 742 mmHg 73%
02:00 +12°C° 0 mm 3 m/s 742 mmHg 75%
03:00 +12°C° 0 mm 3 m/s 742 mmHg 74%
04:00 +11°C° 0 mm 3 m/s 742 mmHg 73%
05:00 +11°C° 0 mm 3 m/s 741 mmHg 72%
06:00 +12°C° 0 mm 3 m/s 742 mmHg 68%
07:00 +12°C° 0 mm 3 m/s 743 mmHg 64%
08:00 +13°C° 0 mm 3 m/s 743 mmHg 61%
09:00 +15°C° 0 mm 4 m/s 744 mmHg 54%
10:00 +19°C° 0 mm 4 m/s 744 mmHg 47%
11:00 +22°C° 0 mm 5 m/s 744 mmHg 40%
12:00 +22°C° 0 mm 5 m/s 743 mmHg 38%
13:00 +23°C° 0 mm 5 m/s 743 mmHg 35%
14:00 +25°C° 0 mm 5 m/s 742 mmHg 33%
15:00 +22°C° 0 mm 4 m/s 742 mmHg 38%
16:00 +21°C° 0 mm 4 m/s 742 mmHg 44%
17:00 +19°C° 0 mm 3 m/s 742 mmHg 50%
18:00 +18°C° 0 mm 3 m/s 742 mmHg 51%
19:00 +17°C° 0 mm 3 m/s 742 mmHg 51%
20:00 +14°C° 0 mm 3 m/s 743 mmHg 52%
21:00 +14°C° 0 mm 3 m/s 743 mmHg 51%
22:00 +13°C° 0 mm 3 m/s 743 mmHg 51%
23:00 +13°C° 0 mm 3 m/s 743 mmHg 50%

Poimâine, 21 Ianuarie, Joi

Timp Temperatura Precipitaţii Vânt Presiune Umiditate
00:00 +12°C° 0 mm 3 m/s 743 mmHg 48%
01:00 +12°C° 0 mm 3 m/s 742 mmHg 46%
02:00 +11°C° 0 mm 3 m/s 742 mmHg 44%
03:00 +11°C° 0 mm 3 m/s 742 mmHg 44%
04:00 +10°C° 0 mm 3 m/s 742 mmHg 43%
05:00 +10°C° 0 mm 3 m/s 741 mmHg 43%
06:00 +10°C° 0 mm 3 m/s 742 mmHg 44%
07:00 +11°C° 0 mm 3 m/s 743 mmHg 45%
08:00 +11°C° 0 mm 3 m/s 743 mmHg 46%
09:00 +14°C° 0 mm 3 m/s 743 mmHg 42%
10:00 +18°C° 0 mm 4 m/s 744 mmHg 37%
11:00 +20°C° 0 mm 4 m/s 744 mmHg 33%
12:00 +21°C° 0 mm 4 m/s 743 mmHg 31%
13:00 +23°C° 0 mm 5 m/s 743 mmHg 29%
14:00 +25°C° 0 mm 5 m/s 742 mmHg 26%
15:00 +22°C° 0 mm 4 m/s 742 mmHg 32%
16:00 +20°C° 0 mm 3 m/s 742 mmHg 37%
17:00 +19°C° 0 mm 2 m/s 742 mmHg 43%
18:00 +17°C° 0 mm 2 m/s 742 mmHg 43%
19:00 +16°C° 0 mm 2 m/s 743 mmHg 44%
20:00 +15°C° 0 mm 2 m/s 743 mmHg 44%
21:00 +14°C° 0 mm 2 m/s 743 mmHg 44%
22:00 +14°C° 0 mm 2 m/s 743 mmHg 44%
23:00 +13°C° 0 mm 1 m/s 743 mmHg 44%

22 Ianuarie, Vineri

Timp Temperatura Precipitaţii Vânt Presiune Umiditate
00:00 +13°C° 0 mm 1 m/s 743 mmHg 44%
01:00 +12°C° 0 mm 1 m/s 743 mmHg 43%
02:00 +12°C° 0 mm 1 m/s 743 mmHg 43%
03:00 +12°C° 0 mm 1 m/s 743 mmHg 44%
04:00 +11°C° 0 mm 1 m/s 743 mmHg 44%
05:00 +11°C° 0 mm 1 m/s 743 mmHg 44%
06:00 +12°C° 0 mm 1 m/s 743 mmHg 45%
07:00 +12°C° 0 mm 0 m/s 744 mmHg 46%
08:00 +13°C° 0 mm 0 m/s 744 mmHg 47%
09:00 +16°C° 0 mm 0 m/s 744 mmHg 41%
10:00 +18°C° 0 mm 0 m/s 745 mmHg 35%
11:00 +22°C° 0 mm 1 m/s 745 mmHg 30%
12:00 +23°C° 0 mm 1 m/s 744 mmHg 28%
13:00 +24°C° 0 mm 1 m/s 743 mmHg 26%
14:00 +25°C° 0 mm 1 m/s 743 mmHg 24%
15:00 +23°C° 0 mm 1 m/s 742 mmHg 29%
16:00 +20°C° 0 mm 0 m/s 742 mmHg 33%
17:00 +18°C° 0 mm 0 m/s 741 mmHg 38%
18:00 +17°C° 0 mm 0 m/s 742 mmHg 39%
19:00 +16°C° 0 mm 0 m/s 742 mmHg 39%
20:00 +14°C° 0 mm 0 m/s 743 mmHg 40%
21:00 +15°C° 0 mm 1 m/s 743 mmHg 41%
22:00 +15°C° 0 mm 1 m/s 743 mmHg 41%
23:00 +14°C° 0 mm 1 m/s 743 mmHg 42%

23 Ianuarie, Sâmbătă

Timp Temperatura Precipitaţii Vânt Presiune Umiditate
00:00 +14°C° 0 mm 1 m/s 743 mmHg 43%
01:00 +14°C° 0 mm 1 m/s 742 mmHg 43%
02:00 +13°C° 0 mm 2 m/s 742 mmHg 44%
03:00 +13°C° 0 mm 2 m/s 742 mmHg 45%
04:00 +12°C° 0 mm 2 m/s 742 mmHg 46%
05:00 +12°C° 0 mm 2 m/s 741 mmHg 47%
06:00 +12°C° 0 mm 2 m/s 742 mmHg 48%
07:00 +13°C° 0 mm 2 m/s 742 mmHg 48%
08:00 +14°C° 0 mm 2 m/s 743 mmHg 49%
09:00 +16°C° 0 mm 3 m/s 743 mmHg 44%
10:00 +19°C° 0 mm 3 m/s 743 mmHg 40%
11:00 +21°C° 0 mm 4 m/s 743 mmHg 35%
12:00 +22°C° 0 mm 4 m/s 742 mmHg 34%
13:00 +23°C° 0 mm 4 m/s 742 mmHg 33%
14:00 +25°C° 0 mm 4 m/s 741 mmHg 32%
15:00 +24°C° 0 mm 3 m/s 740 mmHg 37%
16:00 +22°C° 0 mm 3 m/s 740 mmHg 42%
17:00 +20°C° 0 mm 3 m/s 739 mmHg 47%
18:00 +19°C° 0 mm 3 m/s 740 mmHg 47%
19:00 +18°C° 0 mm 3 m/s 740 mmHg 48%
20:00 +17°C° 0 mm 3 m/s 740 mmHg 48%
21:00 +16°C° 0 mm 3 m/s 740 mmHg 49%
22:00 +16°C° 0 mm 3 m/s 740 mmHg 51%
23:00 +14°C° 0 mm 3 m/s 740 mmHg 52%

24 Ianuarie, Duminică

Timp Temperatura Precipitaţii Vânt Presiune Umiditate
00:00 +14°C° 0 mm 3 m/s 740 mmHg 54%
01:00 +13°C° 0 mm 3 m/s 740 mmHg 56%
02:00 +13°C° 0 mm 3 m/s 740 mmHg 58%
03:00 +13°C° 0 mm 2 m/s 740 mmHg 61%
04:00 +13°C° 0 mm 2 m/s 740 mmHg 64%
05:00 +12°C° 0 mm 2 m/s 740 mmHg 67%
06:00 +13°C° 0 mm 2 m/s 740 mmHg 66%
07:00 +13°C° 0 mm 1 m/s 741 mmHg 66%
08:00 +14°C° 0 mm 1 m/s 742 mmHg 65%
09:00 +16°C° 0 mm 1 m/s 742 mmHg 59%
10:00 +18°C° 0 mm 2 m/s 742 mmHg 53%
11:00 +21°C° 0 mm 2 m/s 743 mmHg 46%
12:00 +23°C° 0 mm 2 m/s 742 mmHg 44%
13:00 +24°C° 0 mm 1 m/s 742 mmHg 41%
14:00 +25°C° 0 mm 1 m/s 741 mmHg 39%
15:00 +23°C° 0 mm 1 m/s 741 mmHg 43%
16:00 +22°C° 0 mm 1 m/s 741 mmHg 47%
17:00 +21°C° 0 mm 1 m/s 741 mmHg 51%
18:00 +19°C° 0 mm 2 m/s 742 mmHg 55%
19:00 +17°C° 0 mm 2 m/s 742 mmHg 58%
20:00 +16°C° 0 mm 3 m/s 743 mmHg 61%
21:00 +14°C° 0 mm 3 m/s 743 mmHg 61%
22:00 +14°C° 0 mm 3 m/s 743 mmHg 60%
23:00 +13°C° 0 mm 3 m/s 743 mmHg 60%
Arată mai mult

Formular de consimțământ

Meteoprog și furnizorii noștri de servicii pot stoca și accesa date personale, precum cookies, identificatori de dispozitiv sau alte tehnologii similare pe dispozitivul dumneavoastră și procesa astfel de date pentru a personaliza conținutul și reclamele, dar și pentru a oferi caracteristici de social media și pentru a analiza traficul.

  • Stocarea și/sau accesarea informațiilor pe dispozitivul dumneavoastră

    Cookies, identificatori de dispozitiv sau alte informații pot fi stocate sau accesate pe dispozitiv în scopurile indicate mai sus.

  • Reclame și conținut personalizat, evaluarea reclamelor și a conținutului, informații despre audiențe și dezvoltarea produselor

    Reclamele și conținutul pot fi personalizate pe baza unui profil. Pot fi adăugate date suplimentare pentru a personaliza mai bine reclamele și conținutul. Performanța reclamelor și conținutului poate fi măsurată. Pot fi obținute informații despre utilizatorii care au văzut reclamele și conținutul. Aceste date pot fi utilizate pentru a dezvolta sau îmbunătăți experiența utilizatorilor, sistemele și software-ul.

Dând clic pe ‘Sunt de acord’, permiteți utilizarea cookie-urilor menționate, a identificatorilor de dispozitiv, balizelor web sau altor tehnologii similare. Setările pot fi modificate din browser-ul dispozitivului dumneavoastră.

În anumite scopuri, interesele legitime pot prima asupra consimțământului. Puteți citi mai multe informații în acest sens în Politica privind Confidențialitatea Datelor și Cookie.